Météo par heure à Alkadar

Ce jour, 28 Octobre, Mercredi

Heure Température Précipitation Vent Pression Humidité
00:00 +12°C° 0 mm 1 m/s 712 mmHg 86%
01:00 +12°C° 0 mm 1 m/s 712 mmHg 85%
02:00 +12°C° 0 mm 1 m/s 712 mmHg 84%
03:00 +12°C° 0 mm 2 m/s 712 mmHg 85%
04:00 +10°C° 0 mm 2 m/s 712 mmHg 84%
05:00 +10°C° 0 mm 2 m/s 712 mmHg 83%
06:00 +10°C° 0 mm 2 m/s 712 mmHg 82%
07:00 +12°C° 0 mm 2 m/s 712 mmHg 78%
08:00 +13°C° 0 mm 2 m/s 712 mmHg 73%
09:00 +14°C° 0 mm 3 m/s 712 mmHg 67%
10:00 +14°C° 0 mm 3 m/s 712 mmHg 66%
11:00 +16°C° 0 mm 3 m/s 712 mmHg 64%
12:00 +17°C° 0 mm 3 m/s 712 mmHg 63%
13:00 +16°C° 0 mm 3 m/s 712 mmHg 65%
14:00 +16°C° 0 mm 3 m/s 711 mmHg 67%
15:00 +16°C° 0 mm 3 m/s 711 mmHg 69%
16:00 +14°C° 0 mm 3 m/s 711 mmHg 75%
17:00 +14°C° 0 mm 2 m/s 711 mmHg 80%
18:00 +13°C° 0 mm 1 m/s 711 mmHg 85%
19:00 +13°C° 0 mm 1 m/s 711 mmHg 83%
20:00 +13°C° 0 mm 1 m/s 710 mmHg 81%
21:00 +13°C° 0 mm 1 m/s 710 mmHg 80%
22:00 +13°C° 0 mm 1 m/s 710 mmHg 76%
23:00 +13°C° 0 mm 1 m/s 710 mmHg 72%

Demain, 29 Octobre, Jeudi

Heure Température Précipitation Vent Pression Humidité
00:00 +13°C° 0 mm 1 m/s 710 mmHg 68%
01:00 +13°C° 0 mm 1 m/s 709 mmHg 66%
02:00 +13°C° 0 mm 1 m/s 709 mmHg 65%
03:00 +12°C° 0 mm 1 m/s 708 mmHg 63%
04:00 +12°C° 0 mm 1 m/s 708 mmHg 60%
05:00 +12°C° 0 mm 1 m/s 708 mmHg 58%
06:00 +12°C° 0 mm 1 m/s 708 mmHg 55%
07:00 +14°C° 0 mm 1 m/s 709 mmHg 52%
08:00 +16°C° 0 mm 1 m/s 709 mmHg 48%
09:00 +19°C° 0 mm 1 m/s 709 mmHg 45%
10:00 +20°C° 0 mm 1 m/s 709 mmHg 44%
11:00 +20°C° 0 mm 2 m/s 709 mmHg 43%
12:00 +21°C° 0 mm 2 m/s 709 mmHg 42%
13:00 +21°C° 0 mm 2 m/s 708 mmHg 45%
14:00 +21°C° 0 mm 2 m/s 708 mmHg 48%
15:00 +20°C° 0 mm 2 m/s 708 mmHg 51%
16:00 +18°C° 0 mm 2 m/s 707 mmHg 58%
17:00 +18°C° 0 mm 1 m/s 707 mmHg 65%
18:00 +15°C° 0 mm 1 m/s 707 mmHg 73%
19:00 +15°C° 0 mm 1 m/s 707 mmHg 70%
20:00 +15°C° 0 mm 2 m/s 707 mmHg 67%
21:00 +15°C° 0 mm 2 m/s 707 mmHg 64%
22:00 +15°C° 0 mm 2 m/s 707 mmHg 61%
23:00 +15°C° 0 mm 2 m/s 707 mmHg 58%

Après-demain, 30 Octobre, Vendredi

Heure Température Précipitation Vent Pression Humidité
00:00 +15°C° 0 mm 2 m/s 707 mmHg 55%
01:00 +15°C° 0 mm 2 m/s 706 mmHg 53%
02:00 +15°C° 0 mm 2 m/s 706 mmHg 51%
03:00 +15°C° 0 mm 2 m/s 706 mmHg 50%
04:00 +15°C° 0 mm 2 m/s 706 mmHg 51%
05:00 +15°C° 0 mm 2 m/s 705 mmHg 52%
06:00 +14°C° 0 mm 2 m/s 705 mmHg 53%
07:00 +17°C° 0 mm 2 m/s 706 mmHg 49%
08:00 +20°C° 0 mm 1 m/s 706 mmHg 46%
09:00 +22°C° 0 mm 1 m/s 706 mmHg 42%
10:00 +21°C° 0 mm 2 m/s 706 mmHg 44%
11:00 +22°C° 0 mm 3 m/s 706 mmHg 45%
12:00 +22°C° 0 mm 5 m/s 706 mmHg 47%
13:00 +21°C° 0 mm 4 m/s 706 mmHg 56%
14:00 +20°C° 0 mm 4 m/s 706 mmHg 64%
15:00 +18°C° 0 mm 4 m/s 706 mmHg 72%
16:00 +17°C° 0 mm 3 m/s 706 mmHg 77%
17:00 +16°C° 0 mm 1 m/s 706 mmHg 83%
18:00 +14°C° 0 mm 0 m/s 706 mmHg 88%
19:00 +14°C° 0 mm 1 m/s 706 mmHg 85%
20:00 +14°C° 0 mm 1 m/s 706 mmHg 83%
21:00 +14°C° 0 mm 1 m/s 706 mmHg 80%
22:00 +14°C° 0 mm 1 m/s 706 mmHg 77%
23:00 +14°C° 0 mm 1 m/s 706 mmHg 74%

31 Octobre, Samedi

Heure Température Précipitation Vent Pression Humidité
00:00 +14°C° 0 mm 1 m/s 706 mmHg 71%
01:00 +14°C° 0 mm 1 m/s 706 mmHg 69%
02:00 +14°C° 0 mm 1 m/s 706 mmHg 66%
03:00 +14°C° 0 mm 1 m/s 705 mmHg 64%
04:00 +14°C° 0 mm 1 m/s 705 mmHg 64%
05:00 +14°C° 0 mm 1 m/s 705 mmHg 63%
06:00 +15°C° 0 mm 1 m/s 705 mmHg 63%
07:00 +16°C° 0 mm 1 m/s 706 mmHg 60%
08:00 +19°C° 0 mm 1 m/s 706 mmHg 57%
09:00 +20°C° 0 mm 1 m/s 706 mmHg 54%
10:00 +21°C° 0 mm 1 m/s 706 mmHg 52%
11:00 +21°C° 0 mm 2 m/s 706 mmHg 51%
12:00 +21°C° 0 mm 2 m/s 706 mmHg 50%
13:00 +21°C° 0 mm 2 m/s 706 mmHg 54%
14:00 +20°C° 0 mm 2 m/s 706 mmHg 59%
15:00 +20°C° 0 mm 2 m/s 705 mmHg 63%
16:00 +18°C° 0 mm 2 m/s 705 mmHg 67%
17:00 +18°C° 0 mm 1 m/s 705 mmHg 70%
18:00 +15°C° 0 mm 1 m/s 705 mmHg 74%
19:00 +15°C° 0 mm 1 m/s 705 mmHg 72%
20:00 +15°C° 0 mm 1 m/s 705 mmHg 70%
21:00 +15°C° 0 mm 1 m/s 706 mmHg 69%
22:00 +15°C° 0 mm 1 m/s 706 mmHg 67%
23:00 +15°C° 0 mm 1 m/s 706 mmHg 65%

1 Novembre, Dimanche

Heure Température Précipitation Vent Pression Humidité
00:00 +15°C° 0 mm 2 m/s 706 mmHg 63%
01:00 +15°C° 0 mm 2 m/s 705 mmHg 61%
02:00 +15°C° 0 mm 2 m/s 705 mmHg 59%
03:00 +15°C° 0 mm 2 m/s 705 mmHg 58%
04:00 +15°C° 0 mm 2 m/s 706 mmHg 57%
05:00 +15°C° 0 mm 2 m/s 706 mmHg 56%
06:00 +15°C° 0 mm 2 m/s 706 mmHg 55%
07:00 +16°C° 0 mm 2 m/s 706 mmHg 58%
08:00 +17°C° 0 mm 2 m/s 707 mmHg 60%
09:00 +18°C° 0 mm 2 m/s 708 mmHg 62%
10:00 +18°C° 0 mm 2 m/s 708 mmHg 63%
11:00 +19°C° 0 mm 2 m/s 708 mmHg 63%
12:00 +19°C° 0 mm 2 m/s 708 mmHg 63%
13:00 +19°C° 0 mm 2 m/s 708 mmHg 64%
14:00 +19°C° 0 mm 2 m/s 707 mmHg 66%
15:00 +18°C° 0 mm 2 m/s 707 mmHg 67%
16:00 +17°C° 0 mm 2 m/s 707 mmHg 72%
17:00 +16°C° 0 mm 1 m/s 707 mmHg 76%
18:00 +14°C° 0 mm 1 m/s 707 mmHg 81%
19:00 +14°C° 0 mm 1 m/s 708 mmHg 78%
20:00 +14°C° 0 mm 1 m/s 708 mmHg 76%
21:00 +14°C° 0 mm 1 m/s 708 mmHg 73%
22:00 +14°C° 0 mm 1 m/s 708 mmHg 71%
23:00 +14°C° 0 mm 1 m/s 708 mmHg 68%

2 Novembre, Lundi

Heure Température Précipitation Vent Pression Humidité
00:00 +14°C° 0 mm 1 m/s 708 mmHg 66%
01:00 +14°C° 0 mm 1 m/s 708 mmHg 64%
02:00 +14°C° 0 mm 1 m/s 708 mmHg 63%
03:00 +13°C° 0 mm 1 m/s 708 mmHg 62%
04:00 +13°C° 0 mm 1 m/s 709 mmHg 61%
05:00 +13°C° 0 mm 1 m/s 709 mmHg 60%
06:00 +13°C° 0 mm 1 m/s 709 mmHg 60%
07:00 +15°C° 0 mm 1 m/s 709 mmHg 55%
08:00 +18°C° 0 mm 1 m/s 710 mmHg 50%
09:00 +18°C° 0 mm 0 m/s 710 mmHg 46%
10:00 +21°C° 0 mm 1 m/s 710 mmHg 44%
11:00 +21°C° 0 mm 2 m/s 710 mmHg 43%
12:00 +23°C° 0 mm 2 m/s 710 mmHg 41%
13:00 +21°C° 0 mm 2 m/s 710 mmHg 44%
14:00 +21°C° 0 mm 2 m/s 710 mmHg 48%
15:00 +20°C° 0 mm 2 m/s 710 mmHg 51%
16:00 +19°C° 0 mm 1 m/s 710 mmHg 57%
17:00 +18°C° 0 mm 1 m/s 710 mmHg 62%
18:00 +14°C° 0 mm 0 m/s 710 mmHg 68%
19:00 +14°C° 0 mm 0 m/s 710 mmHg 67%
20:00 +14°C° 0 mm 0 m/s 710 mmHg 67%
21:00 +13°C° 0 mm 0 m/s 710 mmHg 66%
22:00 +13°C° 0 mm 0 m/s 710 mmHg 64%
23:00 +14°C° 0 mm 0 m/s 710 mmHg 62%
Voir plus

Nous avons besoin de votre consentement

Meteoprog et ses fournisseurs de services peuvent stocker et accéder à des données personnelles telles que des cookies, des identifiants d'appareils ou d'autres technologies similaires sur votre appareil et traiter ces données pour personnaliser le contenu et les publicités, ainsi que pour fournir des fonctionnalités de médias sociaux et analyser le trafic.

  • Stocker et/ou accéder à des informations sur votre appareil

    Des cookies, des identifiants d'appareils ou d'autres informations peuvent être stockés ou accessibles sur votre appareil aux fins indiquées ci-dessus.

  • Annonces et contenus personnalisés, mesure des annonces et des contenus, connaissance de l'audience et développement de produits

    Les annonces et le contenu peuvent être personnalisés en fonction d'un profil. D'autres données peuvent être ajoutées pour mieux personnaliser les annonces et le contenu. Les performances des publicités et du contenu peuvent être mesurées. Il est possible d'obtenir des informations sur le public qui a vu les publicités et le contenu. Ces données peuvent être utilisées pour développer ou améliorer l'expérience de l'utilisateur, les systèmes et les logiciels.

En cliquant sur "J'accepte", vous autorisez l'utilisation de cookies, des identifiants d'appareils, des balises web ou d'autres technologies similaires. Vos paramètres peuvent être modifiés dans le navigateur de votre appareil.

Dans certains cas, des intérêts légitimes peuvent être invoqués plutôt qu'un consentement. Vous pouvez en savoir plus à ce sujet dans notre Politique de confidentialité et de cookies.